Regional Weather Roundup
Issued by NWS Green Bay, WI

Home | Current Version | Previous Version | Text Only | Print | Product List | Glossary On
Versions: 1 2 3 4 5 6 7 8 9 10 11 12 13 14 15 16 17 18 19 20 21 22 23 24 25 26 27 28 29 30 31 32 33 34 35 36 37 38 39 40 41 42 43 44 45 46 47 48 49 50
000
ASUS43 KGRB 301410
RWRGRB

NORTH-CENTRAL AND NORTHEAST WISCONSIN REGIONAL WEATHER ROUNDUP
NATIONAL WEATHER SERVICE GREEN BAY WI
800 AM CST FRI JAN 30 2015

WIZ005-009-010>012-018-019-301500-
NORTH CENTRAL WISCONSIN

CITY           SKY/WX    TMP DP  RH WIND       PRES   REMARKS
IRONWOOD       CLOUDY    10   3  72 W6        30.41S WCI   1
MANITOWISH WTR FLURRIES   9   3  77 CALM      30.40R
ARBOR VITAE    CLOUDY    11   5  74 N6        30.41R WCI   2
EAGLE RIVER    CLOUDY     9   2  73 CALM      30.40R
LAND O LAKES   CLOUDY     9   3  77 CALM      30.41R
RHINELANDER    CLOUDY     9   2  73 W7        30.41R WCI  -2
PHILLIPS       CLOUDY     6   2  83 CALM      30.43R
ANTIGO         CLOUDY    10   4  75 N6        30.43R WCI   0
TOMAHAWK       CLOUDY     9   2  74 CALM      30.43S
MERRILL        CLOUDY    11   4  71 CALM      30.44S
$$

WIZ013-073-301500-
NORTHEAST WISCONSIN

CITY           SKY/WX    TMP DP  RH WIND       PRES   REMARKS
IRON MOUNTAIN  CLOUDY     8  -1  66 NW5       30.43S WCI   0
MARINETTE      CLOUDY    12   1  62 N7        30.49S WCI   2
OCONTO         CLOUDY    13   3  64 CALM      30.50S
$$

WIZ017-030-035>037-045-301500-
CENTRAL WISCONSIN

CITY           SKY/WX    TMP DP  RH WIND       PRES   REMARKS
MEDFORD        PTCLDY     4   1  86 CALM      30.43S
WAUSAU         CLOUDY    10   2  69 NW3       30.45R
MOSINEE        CLEAR      7   3  85 NW5       30.47R WCI  -2
MARSHFIELD     PTCLDY     7   1  76 NW7       30.46S WCI  -5
WISC RAPIDS    MOCLDY    10   3  73 W3        30.50S
STEVENS POINT  MOCLDY     9   2  75 CALM      30.48S
WAUPACA        MOCLDY    16   5  62 CALM      30.50R
SHAWANO        CLOUDY    15   5  63 CALM      30.50R
CLINTONVILLE   CLOUDY    16   5  62 NW3       30.50R
$$

WIZ038-039-048-051-301500-
FOX VALLEY

CITY           SKY/WX    TMP DP  RH WIND       PRES   REMARKS
NWS GREEN BAY  CLOUDY    14   6  70 NW3       30.49S
APPLETON       MOCLDY    12   1  62 NW5       30.49R WCI   4
OSHKOSH        CLEAR     13   3  64 NW5       30.49R WCI   5
FOND DU LAC    FLURRIES  12   2  64 NW6       30.49R WCI   3
$$

WIZ022-050-052-301500-
EAST CENTRAL WISCONSIN

CITY           SKY/WX    TMP DP  RH WIND       PRES   REMARKS
STURGEON BAY   CLOUDY    12   1  62 N8        30.51R WCI   1
MANITOWOC      CLEAR     14   6  70 N6        30.51R WCI   5
SHEBOYGAN      CLEAR     13   7  77 NW3       30.49R
$$

LMZ563-521-522-541>543-301500-
LAKESHORE

STATION/POSITION TIME  TEMP    WIND        PRES    VSBY  WAVE
                       AIR SEA DIR/SP/G                  HT/PER
                 (UTC) (F)     (DEG/KT/KT) (MB)    (MI)  (FT/S)
SHEBOYGAN LKSHOR 1400   18     360/ 14/ 17 1034.2R
KEWAUNEE LKSHORE 1400   12     360/  3/  7 1032.0R
TWO RIVERS CG    1300   13                 1032.4          1
NORTHPORT PIER   1400   13     310/ 15/ 21 1032.5R
SISTER BAY LKSHO 1400   12     350/ 14/ 16   N/A
STURGEON BAY CG  1300    9     310/  3     1032.4      6   1
CHAMBERS ISLAND  1400   12     310/  9/ 11 1032.5R
MENOMINEE LKSHOR 1400   12     350/ 10     1033.3R
$$



USA.gov is the U.S. government's official web portal to all federal, state and local government web resources and services.